Tracking 27380 objects as of 5-Jun-2023
HD Live streaming from Space Station
objects crossing your sky now

FLOCK 4S 8

Track FLOCK 4S 8 now!
10-day predictions
FLOCK 4S 8 is classified as:


NORAD ID: 47474
Int'l Code: 2021-006BP
Perigee: 449.0 km
Apogee: 459.7 km
Inclination: 97.4 °
Period: 93.5 minutes
Semi major axis: 6825 km
RCS: Unknown
Launch date: January 24, 2021
Source: United States (US)
Launch site: ()
Your satellite tracking list
Your tracking list is empty




NASA's NSSDC Master Catalog

Two Line Element Set (TLE):
1 47474U 21006BP  23155.90596960  .00023453  00000-0  59569-3 0  9999
2 47474  97.3808 213.9415 0007852 145.4429 214.7328 15.39618251130821
Source of the keplerian elements: AFSPC